Location: Oak Glen
(34.0495°N, 116.9470°E)
Time: 17:25:59
(UTC-07:00)

Tiangong 1 - Pass Details

Date: 13 October 2017
Orbit: 294 x 320 km, 42.8° (Epoch: 17 October)

Event Time Altitude Azimuth Distance (km) Brightness Sun altitude
Rises 03:16:25 0° 305° (NW) 2,038 5.6 -8.1°
Reaches altitude 10° 03:18:59 10° 331° (NNW) 1,202 3.9 -8.7°
Maximum altitude 03:20:36 15° 8° (N) 977 3.0 -9.0°
Drops below altitude 10° 03:22:13 10° 46° (NE) 1,192 3.1 -9.3°
Enters shadow 03:22:20 10° 48° (NE) 1,221 3.1 -9.4°
